Location: �terpigny
(49.8910°N, 2.9249°E)
Time: 10:54:28
(UTC+00:00)

NOSS 8 (H) - Pass Details

Date: 24 October 2021
Orbit: 371 x 1792 km, 63.3° (Epoch: 05 December)

Event Time Altitude Azimuth Distance (km) Brightness Sun altitude
Rises 18:32:01 0° 224° (SW) 2,478 8.8 -18.7°
Reaches altitude 10° 18:34:15 10° 226° (SW) 1,497 7.6 -19.1°
Maximum altitude 18:37:25 78° 312° (NW) 395 4.1 -19.6°
Enters shadow 18:37:27 78° 324° (NW) 395 4.1 -19.6°
